#datetime,building,power
2022-01-30T00:00:00,mfh,19.45
2022-01-30T00:01:00,mfh,19.46
2022-01-30T00:02:00,mfh,18.69
2022-01-30T00:03:00,mfh,18.48
2022-01-30T00:04:00,mfh,18.47
2022-01-30T00:05:00,mfh,18.45
2022-01-30T00:06:00,mfh,17.73
2022-01-30T00:07:00,mfh,18.24
2022-01-30T00:08:00,mfh,18.00
2022-01-30T00:09:00,mfh,18.84
2022-01-30T00:10:00,mfh,18.85
2022-01-30T00:11:00,mfh,19.69
2022-01-30T00:12:00,mfh,18.69
2022-01-30T00:13:00,mfh,17.97
2022-01-30T00:14:00,mfh,17.96
2022-01-30T00:15:00,mfh,17.96
2022-01-30T00:16:00,mfh,17.71
2022-01-30T00:17:00,mfh,18.32
2022-01-30T00:18:00,mfh,18.35
2022-01-30T00:19:00,mfh,18.36
2022-01-30T00:20:00,mfh,18.40
2022-01-30T00:21:00,mfh,18.44
2022-01-30T00:22:00,mfh,17.72
2022-01-30T00:23:00,mfh,17.82
2022-01-30T00:24:00,mfh,17.84
2022-01-30T00:25:00,mfh,17.92
2022-01-30T00:26:00,mfh,18.81
2022-01-30T00:27:00,mfh,19.02
2022-01-30T00:28:00,mfh,19.04
2022-01-30T00:29:00,mfh,19.01
2022-01-30T00:30:00,mfh,18.28
2022-01-30T00:31:00,mfh,18.28
2022-01-30T00:32:00,mfh,18.34
2022-01-30T00:33:00,mfh,18.49
2022-01-30T00:34:00,mfh,18.47
2022-01-30T00:35:00,mfh,18.89
2022-01-30T00:36:00,mfh,18.96
2022-01-30T00:37:00,mfh,19.00
2022-01-30T00:38:00,mfh,18.99
2022-01-30T00:39:00,mfh,18.29
2022-01-30T00:40:00,mfh,18.33
2022-01-30T00:41:00,mfh,18.27
2022-01-30T00:42:00,mfh,18.27
2022-01-30T00:43:00,mfh,18.80
2022-01-30T00:44:00,mfh,16.76
2022-01-30T00:45:00,mfh,17.00
2022-01-30T00:46:00,mfh,17.21
2022-01-30T00:47:00,mfh,18.28
2022-01-30T00:48:00,mfh,16.59
2022-01-30T00:49:00,mfh,16.43
2022-01-30T00:50:00,mfh,16.29
2022-01-30T00:51:00,mfh,16.28
2022-01-30T00:52:00,mfh,16.81
2022-01-30T00:53:00,mfh,16.65
2022-01-30T00:54:00,mfh,16.63
2022-01-30T00:55:00,mfh,16.62
2022-01-30T00:56:00,mfh,15.90
2022-01-30T00:57:00,mfh,16.59
2022-01-30T00:58:00,mfh,16.63
2022-01-30T00:59:00,mfh,16.55
2022-01-30T01:00:00,mfh,17.19
2022-01-30T01:01:00,mfh,17.22
2022-01-30T01:02:00,mfh,16.52
2022-01-30T01:03:00,mfh,16.80
2022-01-30T01:04:00,mfh,17.09
2022-01-30T01:05:00,mfh,17.22
2022-01-30T01:06:00,mfh,18.36
2022-01-30T01:07:00,mfh,18.34
2022-01-30T01:08:00,mfh,18.41
2022-01-30T01:09:00,mfh,18.79
2022-01-30T01:10:00,mfh,18.82
2022-01-30T01:11:00,mfh,18.52
2022-01-30T01:12:00,mfh,18.48
2022-01-30T01:13:00,mfh,18.47
2022-01-30T01:14:00,mfh,17.81
2022-01-30T01:15:00,mfh,17.88
2022-01-30T01:16:00,mfh,17.88
2022-01-30T01:17:00,mfh,18.64
2022-01-30T01:18:00,mfh,18.55
2022-01-30T01:19:00,mfh,18.54
2022-01-30T01:20:00,mfh,18.58
2022-01-30T01:21:00,mfh,18.58
2022-01-30T01:22:00,mfh,19.80
2022-01-30T01:23:00,mfh,18.48
2022-01-30T01:24:00,mfh,18.46
2022-01-30T01:25:00,mfh,18.38
2022-01-30T01:26:00,mfh,18.81
2022-01-30T01:27:00,mfh,18.98
2022-01-30T01:28:00,mfh,19.64
2022-01-30T01:29:00,mfh,19.08
2022-01-30T01:30:00,mfh,18.54
2022-01-30T01:31:00,mfh,17.80
2022-01-30T01:32:00,mfh,17.69
2022-01-30T01:33:00,mfh,17.72
2022-01-30T01:34:00,mfh,18.40
2022-01-30T01:35:00,mfh,18.44
2022-01-30T01:36:00,mfh,18.43
2022-01-30T01:37:00,mfh,18.50
2022-01-30T01:38:00,mfh,18.58
2022-01-30T01:39:00,mfh,18.53
2022-01-30T01:40:00,mfh,17.92
2022-01-30T01:41:00,mfh,18.08
2022-01-30T01:42:00,mfh,18.41
2022-01-30T01:43:00,mfh,19.02
2022-01-30T01:44:00,mfh,18.77
2022-01-30T01:45:00,mfh,18.74
2022-01-30T01:46:00,mfh,18.77
2022-01-30T01:47:00,mfh,18.73
2022-01-30T01:48:00,mfh,17.85
2022-01-30T01:49:00,mfh,17.63
2022-01-30T01:50:00,mfh,17.64
2022-01-30T01:51:00,mfh,17.66
2022-01-30T01:52:00,mfh,18.48
2022-01-30T01:53:00,mfh,17.38
2022-01-30T01:54:00,mfh,16.68
2022-01-30T01:55:00,mfh,17.26
2022-01-30T01:56:00,mfh,16.57
2022-01-30T01:57:00,mfh,17.03
2022-01-30T01:58:00,mfh,16.59
2022-01-30T01:59:00,mfh,16.81
2022-01-30T02:00:00,mfh,16.65
2022-01-30T02:01:00,mfh,16.90
2022-01-30T02:02:00,mfh,16.91
2022-01-30T02:03:00,mfh,16.89
2022-01-30T02:04:00,mfh,16.93
2022-01-30T02:05:00,mfh,16.48
2022-01-30T02:06:00,mfh,16.22
2022-01-30T02:07:00,mfh,16.00
2022-01-30T02:08:00,mfh,15.86
2022-01-30T02:09:00,mfh,16.55
2022-01-30T02:10:00,mfh,16.51
2022-01-30T02:11:00,mfh,16.52
2022-01-30T02:12:00,mfh,17.18
2022-01-30T02:13:00,mfh,16.62
2022-01-30T02:14:00,mfh,15.90
2022-01-30T02:15:00,mfh,17.86
2022-01-30T02:16:00,mfh,17.94
2022-01-30T02:17:00,mfh,18.57
2022-01-30T02:18:00,mfh,19.09
2022-01-30T02:19:00,mfh,18.97
2022-01-30T02:20:00,mfh,18.91
2022-01-30T02:21:00,mfh,18.84
2022-01-30T02:22:00,mfh,18.17
2022-01-30T02:23:00,mfh,18.24
2022-01-30T02:24:00,mfh,18.02
2022-01-30T02:25:00,mfh,18.02
2022-01-30T02:26:00,mfh,18.43
2022-01-30T02:27:00,mfh,18.44
2022-01-30T02:28:00,mfh,18.50
2022-01-30T02:29:00,mfh,18.50
2022-01-30T02:30:00,mfh,18.56
2022-01-30T02:31:00,mfh,17.88
2022-01-30T02:32:00,mfh,17.90
2022-01-30T02:33:00,mfh,17.90
2022-01-30T02:34:00,mfh,18.74
2022-01-30T02:35:00,mfh,18.73
2022-01-30T02:36:00,mfh,18.76
2022-01-30T02:37:00,mfh,18.99
2022-01-30T02:38:00,mfh,18.89
2022-01-30T02:39:00,mfh,18.73
2022-01-30T02:40:00,mfh,18.03
2022-01-30T02:41:00,mfh,18.05
2022-01-30T02:42:00,mfh,18.13
2022-01-30T02:43:00,mfh,18.73
2022-01-30T02:44:00,mfh,18.83
2022-01-30T02:45:00,mfh,18.71
2022-01-30T02:46:00,mfh,18.63
2022-01-30T02:47:00,mfh,18.50
2022-01-30T02:48:00,mfh,17.83
2022-01-30T02:49:00,mfh,17.80
2022-01-30T02:50:00,mfh,17.92
2022-01-30T02:51:00,mfh,18.11
2022-01-30T02:52:00,mfh,19.43
2022-01-30T02:53:00,mfh,19.49
2022-01-30T02:54:00,mfh,19.50
2022-01-30T02:55:00,mfh,19.56
2022-01-30T02:56:00,mfh,19.26
2022-01-30T02:57:00,mfh,18.04
2022-01-30T02:58:00,mfh,18.41
2022-01-30T02:59:00,mfh,17.97
2022-01-30T03:00:00,mfh,18.60
2022-01-30T03:01:00,mfh,39.20
2022-01-30T03:02:00,mfh,38.92
2022-01-30T03:03:00,mfh,39.18
2022-01-30T03:04:00,mfh,37.34
2022-01-30T03:05:00,mfh,37.27
2022-01-30T03:06:00,mfh,36.61
2022-01-30T03:07:00,mfh,36.66
2022-01-30T03:08:00,mfh,36.73
2022-01-30T03:09:00,mfh,36.90
2022-01-30T03:10:00,mfh,37.31
2022-01-30T03:11:00,mfh,37.44
2022-01-30T03:12:00,mfh,37.44
2022-01-30T03:13:00,mfh,37.34
2022-01-30T03:14:00,mfh,37.35
2022-01-30T03:15:00,mfh,37.03
2022-01-30T03:16:00,mfh,37.62
2022-01-30T03:17:00,mfh,36.86
2022-01-30T03:18:00,mfh,37.11
2022-01-30T03:19:00,mfh,37.70
2022-01-30T03:20:00,mfh,37.78
2022-01-30T03:21:00,mfh,37.79
2022-01-30T03:22:00,mfh,38.07
2022-01-30T03:23:00,mfh,36.59
2022-01-30T03:24:00,mfh,36.53
2022-01-30T03:25:00,mfh,38.67
2022-01-30T03:26:00,mfh,38.80
2022-01-30T03:27:00,mfh,39.49
2022-01-30T03:28:00,mfh,40.36
2022-01-30T03:29:00,mfh,39.44
2022-01-30T03:30:00,mfh,39.32
2022-01-30T03:31:00,mfh,39.33
2022-01-30T03:32:00,mfh,39.20
2022-01-30T03:33:00,mfh,38.83
2022-01-30T03:34:00,mfh,39.97
2022-01-30T03:35:00,mfh,38.90
2022-01-30T03:36:00,mfh,39.49
2022-01-30T03:37:00,mfh,39.36
2022-01-30T03:38:00,mfh,39.31
2022-01-30T03:39:00,mfh,39.33
2022-01-30T03:40:00,mfh,39.75
2022-01-30T03:41:00,mfh,38.78
2022-01-30T03:42:00,mfh,38.66
2022-01-30T03:43:00,mfh,38.65
2022-01-30T03:44:00,mfh,38.72
2022-01-30T03:45:00,mfh,39.39
2022-01-30T03:46:00,mfh,39.50
2022-01-30T03:47:00,mfh,40.25
2022-01-30T03:48:00,mfh,40.18
2022-01-30T03:49:00,mfh,40.21
2022-01-30T03:50:00,mfh,39.79
2022-01-30T03:51:00,mfh,39.66
2022-01-30T03:52:00,mfh,38.89
2022-01-30T03:53:00,mfh,39.33
2022-01-30T03:54:00,mfh,39.39
2022-01-30T03:55:00,mfh,39.40
2022-01-30T03:56:00,mfh,39.31
2022-01-30T03:57:00,mfh,39.29
2022-01-30T03:58:00,mfh,39.28
2022-01-30T03:59:00,mfh,38.68
2022-01-30T04:00:00,mfh,38.79
2022-01-30T04:01:00,mfh,38.45
2022-01-30T04:02:00,mfh,39.92
2022-01-30T04:03:00,mfh,39.31
2022-01-30T04:04:00,mfh,39.37
2022-01-30T04:05:00,mfh,39.34
2022-01-30T04:06:00,mfh,39.37
2022-01-30T04:07:00,mfh,38.72
2022-01-30T04:08:00,mfh,38.87
2022-01-30T04:09:00,mfh,38.50
2022-01-30T04:10:00,mfh,38.62
2022-01-30T04:11:00,mfh,39.90
2022-01-30T04:12:00,mfh,39.42
2022-01-30T04:13:00,mfh,39.38
2022-01-30T04:14:00,mfh,39.49
2022-01-30T04:15:00,mfh,39.71
2022-01-30T04:16:00,mfh,37.15
2022-01-30T04:17:00,mfh,36.84
2022-01-30T04:18:00,mfh,36.78
2022-01-30T04:19:00,mfh,37.91
2022-01-30T04:20:00,mfh,38.08
2022-01-30T04:21:00,mfh,36.67
2022-01-30T04:22:00,mfh,36.78
2022-01-30T04:23:00,mfh,36.72
2022-01-30T04:24:00,mfh,36.77
2022-01-30T04:25:00,mfh,37.27
2022-01-30T04:26:00,mfh,37.20
2022-01-30T04:27:00,mfh,37.46
2022-01-30T04:28:00,mfh,37.38
2022-01-30T04:29:00,mfh,37.51
2022-01-30T04:30:00,mfh,37.41
2022-01-30T04:31:00,mfh,36.88
2022-01-30T04:32:00,mfh,36.98
2022-01-30T04:33:00,mfh,36.91
2022-01-30T04:34:00,mfh,37.31
2022-01-30T04:35:00,mfh,37.15
2022-01-30T04:36:00,mfh,37.81
2022-01-30T04:37:00,mfh,39.15
2022-01-30T04:38:00,mfh,39.14
2022-01-30T04:39:00,mfh,38.52
2022-01-30T04:40:00,mfh,38.42
2022-01-30T04:41:00,mfh,38.42
2022-01-30T04:42:00,mfh,40.69
2022-01-30T04:43:00,mfh,39.84
2022-01-30T04:44:00,mfh,39.99
2022-01-30T04:45:00,mfh,39.98
2022-01-30T04:46:00,mfh,40.23
2022-01-30T04:47:00,mfh,38.75
2022-01-30T04:48:00,mfh,39.04
2022-01-30T04:49:00,mfh,39.02
2022-01-30T04:50:00,mfh,38.72
2022-01-30T04:51:00,mfh,39.95
2022-01-30T04:52:00,mfh,39.24
2022-01-30T04:53:00,mfh,39.32
2022-01-30T04:54:00,mfh,39.31
2022-01-30T04:55:00,mfh,39.48
2022-01-30T04:56:00,mfh,38.47
2022-01-30T04:57:00,mfh,39.47
2022-01-30T04:58:00,mfh,38.50
2022-01-30T04:59:00,mfh,38.45
2022-01-30T05:00:00,mfh,39.24
2022-01-30T05:01:00,mfh,39.15
2022-01-30T05:02:00,mfh,39.25
2022-01-30T05:03:00,mfh,39.45
2022-01-30T05:04:00,mfh,39.39
2022-01-30T05:05:00,mfh,38.66
2022-01-30T05:06:00,mfh,38.66
2022-01-30T05:07:00,mfh,39.07
2022-01-30T05:08:00,mfh,39.34
2022-01-30T05:09:00,mfh,39.32
2022-01-30T05:10:00,mfh,39.46
2022-01-30T05:11:00,mfh,39.44
2022-01-30T05:12:00,mfh,39.34
2022-01-30T05:13:00,mfh,38.66
2022-01-30T05:14:00,mfh,39.33
2022-01-30T05:15:00,mfh,39.37
2022-01-30T05:16:00,mfh,39.28
2022-01-30T05:17:00,mfh,39.80
2022-01-30T05:18:00,mfh,39.89
2022-01-30T05:19:00,mfh,39.87
2022-01-30T05:20:00,mfh,39.92
2022-01-30T05:21:00,mfh,39.76
2022-01-30T05:22:00,mfh,39.26
2022-01-30T05:23:00,mfh,38.74
2022-01-30T05:24:00,mfh,38.48
2022-01-30T05:25:00,mfh,38.70
2022-01-30T05:26:00,mfh,39.76
2022-01-30T05:27:00,mfh,40.04
2022-01-30T05:28:00,mfh,40.12
2022-01-30T05:29:00,mfh,40.04
2022-01-30T05:30:00,mfh,39.95
2022-01-30T05:31:00,mfh,39.73
2022-01-30T05:32:00,mfh,38.89
2022-01-30T05:33:00,mfh,36.80
2022-01-30T05:34:00,mfh,36.83
2022-01-30T05:35:00,mfh,37.41
2022-01-30T05:36:00,mfh,37.40
2022-01-30T05:37:00,mfh,38.06
2022-01-30T05:38:00,mfh,38.82
2022-01-30T05:39:00,mfh,38.08
2022-01-30T05:40:00,mfh,37.42
2022-01-30T05:41:00,mfh,37.66
2022-01-30T05:42:00,mfh,36.73
2022-01-30T05:43:00,mfh,36.41
2022-01-30T05:44:00,mfh,37.48
2022-01-30T05:45:00,mfh,37.00
2022-01-30T05:46:00,mfh,36.48
2022-01-30T05:47:00,mfh,36.61
2022-01-30T05:48:00,mfh,35.80
2022-01-30T05:49:00,mfh,35.88
2022-01-30T05:50:00,mfh,35.65
2022-01-30T05:51:00,mfh,35.31
2022-01-30T05:52:00,mfh,34.30
2022-01-30T05:53:00,mfh,37.61
2022-01-30T05:54:00,mfh,37.32
2022-01-30T05:55:00,mfh,37.16
2022-01-30T05:56:00,mfh,37.12
2022-01-30T05:57:00,mfh,36.43
2022-01-30T05:58:00,mfh,36.53
2022-01-30T05:59:00,mfh,36.62
2022-01-30T06:00:00,mfh,36.75
2022-01-30T06:01:00,mfh,37.40
2022-01-30T06:02:00,mfh,37.29
2022-01-30T06:03:00,mfh,37.76
2022-01-30T06:04:00,mfh,37.82
2022-01-30T06:05:00,mfh,58.52
2022-01-30T06:06:00,mfh,59.94
2022-01-30T06:07:00,mfh,60.64
2022-01-30T06:08:00,mfh,60.80
2022-01-30T06:09:00,mfh,61.32
2022-01-30T06:10:00,mfh,61.43
2022-01-30T06:11:00,mfh,61.59
2022-01-30T06:12:00,mfh,61.77
2022-01-30T06:13:00,mfh,61.68
2022-01-30T06:14:00,mfh,60.76
2022-01-30T06:15:00,mfh,60.55
2022-01-30T06:16:00,mfh,60.61
2022-01-30T06:17:00,mfh,60.95
2022-01-30T06:18:00,mfh,61.60
2022-01-30T06:19:00,mfh,61.38
2022-01-30T06:20:00,mfh,61.27
2022-01-30T06:21:00,mfh,61.39
2022-01-30T06:22:00,mfh,61.19
2022-01-30T06:23:00,mfh,53.91
2022-01-30T06:24:00,mfh,37.78
2022-01-30T06:25:00,mfh,37.80
2022-01-30T06:26:00,mfh,38.28
2022-01-30T06:27:00,mfh,38.30
2022-01-30T06:28:00,mfh,38.03
2022-01-30T06:29:00,mfh,37.95
2022-01-30T06:30:00,mfh,39.09
2022-01-30T06:31:00,mfh,37.95
2022-01-30T06:32:00,mfh,38.02
2022-01-30T06:33:00,mfh,37.95
2022-01-30T06:34:00,mfh,37.00
2022-01-30T06:35:00,mfh,37.65
2022-01-30T06:36:00,mfh,37.71
2022-01-30T06:37:00,mfh,37.59
2022-01-30T06:38:00,mfh,37.59
2022-01-30T06:39:00,mfh,37.76
2022-01-30T06:40:00,mfh,37.18
2022-01-30T06:41:00,mfh,37.71
2022-01-30T06:42:00,mfh,37.66
2022-01-30T06:43:00,mfh,38.28
2022-01-30T06:44:00,mfh,38.10
2022-01-30T06:45:00,mfh,38.10
2022-01-30T06:46:00,mfh,38.09
2022-01-30T06:47:00,mfh,37.80
2022-01-30T06:48:00,mfh,37.23
2022-01-30T06:49:00,mfh,37.37
2022-01-30T06:50:00,mfh,37.43
2022-01-30T06:51:00,mfh,35.34
2022-01-30T06:52:00,mfh,35.87
2022-01-30T06:53:00,mfh,35.98
2022-01-30T06:54:00,mfh,36.08
2022-01-30T06:55:00,mfh,36.09
2022-01-30T06:56:00,mfh,36.46
2022-01-30T06:57:00,mfh,37.47
2022-01-30T06:58:00,mfh,37.38
2022-01-30T06:59:00,mfh,37.12
2022-01-30T07:00:00,mfh,37.54
2022-01-30T07:01:00,mfh,37.57
2022-01-30T07:02:00,mfh,38.15
2022-01-30T07:03:00,mfh,35.50
2022-01-30T07:04:00,mfh,35.64
2022-01-30T07:05:00,mfh,37.27
2022-01-30T07:06:00,mfh,37.84
2022-01-30T07:07:00,mfh,38.01
2022-01-30T07:08:00,mfh,37.94
2022-01-30T07:09:00,mfh,38.52
2022-01-30T07:10:00,mfh,38.57
2022-01-30T07:11:00,mfh,40.79
2022-01-30T07:12:00,mfh,40.46
2022-01-30T07:13:00,mfh,40.83
2022-01-30T07:14:00,mfh,39.22
2022-01-30T07:15:00,mfh,36.08
2022-01-30T07:16:00,mfh,36.32
2022-01-30T07:17:00,mfh,35.75
2022-01-30T07:18:00,mfh,36.76
2022-01-30T07:19:00,mfh,35.93
2022-01-30T07:20:00,mfh,35.88
2022-01-30T07:21:00,mfh,36.61
2022-01-30T07:22:00,mfh,36.35
2022-01-30T07:23:00,mfh,35.81
2022-01-30T07:24:00,mfh,35.86
2022-01-30T07:25:00,mfh,35.38
2022-01-30T07:26:00,mfh,36.05
2022-01-30T07:27:00,mfh,35.98
2022-01-30T07:28:00,mfh,36.05
2022-01-30T07:29:00,mfh,36.07
2022-01-30T07:30:00,mfh,36.06
2022-01-30T07:31:00,mfh,36.18
2022-01-30T07:32:00,mfh,35.28
2022-01-30T07:33:00,mfh,35.22
2022-01-30T07:34:00,mfh,35.38
2022-01-30T07:35:00,mfh,36.21
2022-01-30T07:36:00,mfh,36.35
2022-01-30T07:37:00,mfh,36.28
2022-01-30T07:38:00,mfh,36.38
2022-01-30T07:39:00,mfh,36.39
2022-01-30T07:40:00,mfh,35.50
2022-01-30T07:41:00,mfh,35.47
2022-01-30T07:42:00,mfh,35.44
2022-01-30T07:43:00,mfh,35.64
2022-01-30T07:44:00,mfh,36.26
2022-01-30T07:45:00,mfh,36.00
2022-01-30T07:46:00,mfh,36.22
2022-01-30T07:47:00,mfh,36.22
2022-01-30T07:48:00,mfh,35.79
2022-01-30T07:49:00,mfh,35.21
2022-01-30T07:50:00,mfh,35.28
2022-01-30T07:51:00,mfh,35.20
2022-01-30T07:52:00,mfh,35.82
2022-01-30T07:53:00,mfh,36.07
2022-01-30T07:54:00,mfh,36.05
2022-01-30T07:55:00,mfh,36.33
2022-01-30T07:56:00,mfh,36.60
2022-01-30T07:57:00,mfh,35.91
2022-01-30T07:58:00,mfh,35.99
2022-01-30T07:59:00,mfh,36.16
2022-01-30T08:00:00,mfh,35.82
2022-01-30T08:01:00,mfh,36.86
2022-01-30T08:02:00,mfh,36.42
2022-01-30T08:03:00,mfh,36.42
2022-01-30T08:04:00,mfh,36.17
2022-01-30T08:05:00,mfh,36.26
2022-01-30T08:06:00,mfh,36.30
2022-01-30T08:07:00,mfh,35.52
2022-01-30T08:08:00,mfh,35.74
2022-01-30T08:09:00,mfh,35.51
2022-01-30T08:10:00,mfh,36.17
2022-01-30T08:11:00,mfh,36.46
2022-01-30T08:12:00,mfh,37.29
2022-01-30T08:13:00,mfh,37.96
2022-01-30T08:14:00,mfh,37.57
2022-01-30T08:15:00,mfh,36.85
2022-01-30T08:16:00,mfh,34.05
2022-01-30T08:17:00,mfh,34.15
2022-01-30T08:18:00,mfh,33.69
2022-01-30T08:19:00,mfh,34.41
2022-01-30T08:20:00,mfh,34.45
2022-01-30T08:21:00,mfh,34.59
2022-01-30T08:22:00,mfh,34.59
2022-01-30T08:23:00,mfh,34.41
2022-01-30T08:24:00,mfh,33.82
2022-01-30T08:25:00,mfh,33.74
2022-01-30T08:26:00,mfh,33.71
2022-01-30T08:27:00,mfh,34.24
2022-01-30T08:28:00,mfh,34.66
2022-01-30T08:29:00,mfh,34.49
2022-01-30T08:30:00,mfh,34.46
2022-01-30T08:31:00,mfh,34.50
2022-01-30T08:32:00,mfh,33.81
2022-01-30T08:33:00,mfh,33.99
2022-01-30T08:34:00,mfh,34.02
2022-01-30T08:35:00,mfh,35.96
2022-01-30T08:36:00,mfh,36.28
2022-01-30T08:37:00,mfh,36.40
2022-01-30T08:38:00,mfh,36.19
2022-01-30T08:39:00,mfh,35.97
2022-01-30T08:40:00,mfh,35.87
2022-01-30T08:41:00,mfh,35.82
2022-01-30T08:42:00,mfh,35.30
2022-01-30T08:43:00,mfh,35.15
2022-01-30T08:44:00,mfh,35.48
2022-01-30T08:45:00,mfh,36.02
2022-01-30T08:46:00,mfh,35.93
2022-01-30T08:47:00,mfh,36.13
2022-01-30T08:48:00,mfh,36.20
2022-01-30T08:49:00,mfh,36.20
2022-01-30T08:50:00,mfh,36.60
2022-01-30T08:51:00,mfh,35.86
2022-01-30T08:52:00,mfh,36.29
2022-01-30T08:53:00,mfh,36.47
2022-01-30T08:54:00,mfh,37.23
2022-01-30T08:55:00,mfh,36.66
2022-01-30T08:56:00,mfh,36.59
2022-01-30T08:57:00,mfh,36.85
2022-01-30T08:58:00,mfh,37.21
2022-01-30T08:59:00,mfh,36.69
2022-01-30T09:00:00,mfh,37.61
2022-01-30T09:01:00,mfh,48.55
2022-01-30T09:02:00,mfh,49.19
2022-01-30T09:03:00,mfh,49.50
2022-01-30T09:04:00,mfh,49.32
2022-01-30T09:05:00,mfh,48.86
2022-01-30T09:06:00,mfh,49.68
2022-01-30T09:07:00,mfh,48.17
2022-01-30T09:08:00,mfh,48.06
2022-01-30T09:09:00,mfh,48.03
2022-01-30T09:10:00,mfh,47.79
2022-01-30T09:11:00,mfh,48.41
2022-01-30T09:12:00,mfh,48.37
2022-01-30T09:13:00,mfh,48.36
2022-01-30T09:14:00,mfh,48.77
2022-01-30T09:15:00,mfh,48.21
2022-01-30T09:16:00,mfh,47.67
2022-01-30T09:17:00,mfh,47.85
2022-01-30T09:18:00,mfh,48.04
2022-01-30T09:19:00,mfh,48.39
2022-01-30T09:20:00,mfh,48.79
2022-01-30T09:21:00,mfh,48.65
2022-01-30T09:22:00,mfh,49.12
2022-01-30T09:23:00,mfh,48.62
2022-01-30T09:24:00,mfh,48.25
2022-01-30T09:25:00,mfh,47.64
2022-01-30T09:26:00,mfh,47.60
2022-01-30T09:27:00,mfh,47.67
2022-01-30T09:28:00,mfh,46.04
2022-01-30T09:29:00,mfh,45.96
2022-01-30T09:30:00,mfh,46.08
2022-01-30T09:31:00,mfh,46.07
2022-01-30T09:32:00,mfh,46.08
2022-01-30T09:33:00,mfh,46.39
2022-01-30T09:34:00,mfh,46.95
2022-01-30T09:35:00,mfh,46.56
2022-01-30T09:36:00,mfh,47.45
2022-01-30T09:37:00,mfh,47.36
2022-01-30T09:38:00,mfh,48.09
2022-01-30T09:39:00,mfh,47.86
2022-01-30T09:40:00,mfh,49.03
2022-01-30T09:41:00,mfh,48.09
2022-01-30T09:42:00,mfh,47.41
2022-01-30T09:43:00,mfh,47.38
2022-01-30T09:44:00,mfh,47.18
2022-01-30T09:45:00,mfh,47.75
2022-01-30T09:46:00,mfh,48.33
2022-01-30T09:47:00,mfh,47.58
2022-01-30T09:48:00,mfh,47.51
2022-01-30T09:49:00,mfh,47.88
2022-01-30T09:50:00,mfh,49.82
2022-01-30T09:51:00,mfh,50.47
2022-01-30T09:52:00,mfh,50.59
2022-01-30T09:53:00,mfh,50.87
2022-01-30T09:54:00,mfh,51.40
2022-01-30T09:55:00,mfh,50.47
2022-01-30T09:56:00,mfh,51.12
2022-01-30T09:57:00,mfh,50.86
2022-01-30T09:58:00,mfh,51.55
2022-01-30T09:59:00,mfh,50.05
2022-01-30T10:00:00,mfh,49.73
2022-01-30T10:01:00,mfh,49.36
2022-01-30T10:02:00,mfh,50.08
2022-01-30T10:03:00,mfh,50.67
2022-01-30T10:04:00,mfh,50.48
2022-01-30T10:05:00,mfh,50.51
2022-01-30T10:06:00,mfh,50.64
2022-01-30T10:07:00,mfh,49.98
2022-01-30T10:08:00,mfh,49.15
2022-01-30T10:09:00,mfh,49.48
2022-01-30T10:10:00,mfh,49.17
2022-01-30T10:11:00,mfh,49.95
2022-01-30T10:12:00,mfh,49.99
2022-01-30T10:13:00,mfh,50.09
2022-01-30T10:14:00,mfh,50.10
2022-01-30T10:15:00,mfh,50.84
2022-01-30T10:16:00,mfh,49.54
2022-01-30T10:17:00,mfh,49.23
2022-01-30T10:18:00,mfh,49.50
2022-01-30T10:19:00,mfh,49.64
2022-01-30T10:20:00,mfh,50.52
2022-01-30T10:21:00,mfh,50.02
2022-01-30T10:22:00,mfh,50.08
2022-01-30T10:23:00,mfh,49.91
2022-01-30T10:24:00,mfh,50.76
2022-01-30T10:25:00,mfh,50.01
2022-01-30T10:26:00,mfh,50.68
2022-01-30T10:27:00,mfh,63.15
2022-01-30T10:28:00,mfh,62.72
2022-01-30T10:29:00,mfh,62.32
2022-01-30T10:30:00,mfh,62.03
2022-01-30T10:31:00,mfh,62.64
2022-01-30T10:32:00,mfh,63.34
2022-01-30T10:33:00,mfh,63.45
2022-01-30T10:34:00,mfh,61.34
2022-01-30T10:35:00,mfh,60.03
2022-01-30T10:36:00,mfh,60.25
2022-01-30T10:37:00,mfh,60.36
2022-01-30T10:38:00,mfh,60.10
2022-01-30T10:39:00,mfh,60.14
2022-01-30T10:40:00,mfh,59.99
2022-01-30T10:41:00,mfh,60.63
2022-01-30T10:42:00,mfh,58.58
2022-01-30T10:43:00,mfh,59.07
2022-01-30T10:44:00,mfh,59.41
2022-01-30T10:45:00,mfh,60.04
2022-01-30T10:46:00,mfh,59.29
2022-01-30T10:47:00,mfh,59.35
2022-01-30T10:48:00,mfh,58.84
2022-01-30T10:49:00,mfh,58.78
2022-01-30T10:50:00,mfh,58.74
2022-01-30T10:51:00,mfh,58.42
2022-01-30T10:52:00,mfh,58.16
2022-01-30T10:53:00,mfh,58.22
2022-01-30T10:54:00,mfh,57.76
2022-01-30T10:55:00,mfh,58.53
2022-01-30T10:56:00,mfh,58.72
2022-01-30T10:57:00,mfh,58.77
2022-01-30T10:58:00,mfh,60.49
2022-01-30T10:59:00,mfh,60.86
2022-01-30T11:00:00,mfh,59.97
2022-01-30T11:01:00,mfh,59.95
2022-01-30T11:02:00,mfh,59.80
2022-01-30T11:03:00,mfh,60.39
2022-01-30T11:04:00,mfh,60.46
2022-01-30T11:05:00,mfh,59.99
2022-01-30T11:06:00,mfh,60.04
2022-01-30T11:07:00,mfh,60.08
2022-01-30T11:08:00,mfh,60.11
2022-01-30T11:09:00,mfh,60.05
2022-01-30T11:10:00,mfh,60.86
2022-01-30T11:11:00,mfh,61.08
2022-01-30T11:12:00,mfh,61.90
2022-01-30T11:13:00,mfh,61.28
2022-01-30T11:14:00,mfh,61.28
2022-01-30T11:15:00,mfh,61.00
2022-01-30T11:16:00,mfh,61.52
2022-01-30T11:17:00,mfh,61.00
2022-01-30T11:18:00,mfh,60.57
2022-01-30T11:19:00,mfh,60.95
2022-01-30T11:20:00,mfh,61.04
2022-01-30T11:21:00,mfh,61.52
2022-01-30T11:22:00,mfh,61.20
2022-01-30T11:23:00,mfh,60.98
2022-01-30T11:24:00,mfh,61.63
2022-01-30T11:25:00,mfh,61.41
2022-01-30T11:26:00,mfh,62.48
2022-01-30T11:27:00,mfh,61.87
2022-01-30T11:28:00,mfh,60.89
2022-01-30T11:29:00,mfh,60.87
2022-01-30T11:30:00,mfh,61.64
2022-01-30T11:31:00,mfh,60.93
2022-01-30T11:32:00,mfh,61.57
2022-01-30T11:33:00,mfh,60.86
2022-01-30T11:34:00,mfh,59.91
2022-01-30T11:35:00,mfh,59.90
2022-01-30T11:36:00,mfh,57.98
2022-01-30T11:37:00,mfh,58.05
2022-01-30T11:38:00,mfh,58.95
2022-01-30T11:39:00,mfh,58.85
2022-01-30T11:40:00,mfh,58.66
2022-01-30T11:41:00,mfh,59.12
2022-01-30T11:42:00,mfh,59.14
2022-01-30T11:43:00,mfh,58.48
2022-01-30T11:44:00,mfh,59.56
2022-01-30T11:45:00,mfh,61.05
2022-01-30T11:46:00,mfh,60.24
2022-01-30T11:47:00,mfh,60.69
2022-01-30T11:48:00,mfh,61.04
2022-01-30T11:49:00,mfh,60.67
2022-01-30T11:50:00,mfh,60.71
2022-01-30T11:51:00,mfh,59.69
2022-01-30T11:52:00,mfh,59.44
2022-01-30T11:53:00,mfh,60.33
2022-01-30T11:54:00,mfh,60.23
2022-01-30T11:55:00,mfh,60.23
2022-01-30T11:56:00,mfh,61.05
2022-01-30T11:57:00,mfh,61.05
2022-01-30T11:58:00,mfh,61.06
2022-01-30T11:59:00,mfh,61.51
2022-01-30T12:00:00,mfh,61.03
2022-01-30T12:01:00,mfh,61.13
2022-01-30T12:02:00,mfh,62.46
2022-01-30T12:03:00,mfh,63.14
2022-01-30T12:04:00,mfh,63.68
2022-01-30T12:05:00,mfh,63.54
2022-01-30T12:06:00,mfh,63.38
2022-01-30T12:07:00,mfh,63.99
2022-01-30T12:08:00,mfh,63.50
2022-01-30T12:09:00,mfh,62.42
2022-01-30T12:10:00,mfh,62.32
2022-01-30T12:11:00,mfh,61.87
2022-01-30T12:12:00,mfh,62.54
2022-01-30T12:13:00,mfh,62.72
2022-01-30T12:14:00,mfh,62.69
2022-01-30T12:15:00,mfh,62.65
2022-01-30T12:16:00,mfh,63.00
2022-01-30T12:17:00,mfh,62.57
2022-01-30T12:18:00,mfh,63.19
2022-01-30T12:19:00,mfh,63.74
2022-01-30T12:20:00,mfh,63.77
2022-01-30T12:21:00,mfh,64.33
2022-01-30T12:22:00,mfh,63.55
2022-01-30T12:23:00,mfh,63.47
2022-01-30T12:24:00,mfh,62.88
2022-01-30T12:25:00,mfh,62.73
2022-01-30T12:26:00,mfh,62.13
2022-01-30T12:27:00,mfh,61.72
2022-01-30T12:28:00,mfh,61.67
2022-01-30T12:29:00,mfh,61.67
2022-01-30T12:30:00,mfh,63.05
2022-01-30T12:31:00,mfh,61.80
2022-01-30T12:32:00,mfh,62.05
2022-01-30T12:33:00,mfh,61.90
2022-01-30T12:34:00,mfh,61.91
2022-01-30T12:35:00,mfh,61.62
2022-01-30T12:36:00,mfh,59.79
2022-01-30T12:37:00,mfh,60.30
2022-01-30T12:38:00,mfh,61.01
2022-01-30T12:39:00,mfh,61.20
2022-01-30T12:40:00,mfh,61.26
2022-01-30T12:41:00,mfh,61.05
2022-01-30T12:42:00,mfh,61.07
2022-01-30T12:43:00,mfh,60.97
2022-01-30T12:44:00,mfh,60.30
2022-01-30T12:45:00,mfh,59.65
2022-01-30T12:46:00,mfh,59.75
2022-01-30T12:47:00,mfh,60.56
2022-01-30T12:48:00,mfh,60.77
2022-01-30T12:49:00,mfh,60.64
2022-01-30T12:50:00,mfh,67.83
2022-01-30T12:51:00,mfh,81.04
2022-01-30T12:52:00,mfh,81.91
2022-01-30T12:53:00,mfh,82.32
2022-01-30T12:54:00,mfh,82.48
2022-01-30T12:55:00,mfh,82.42
2022-01-30T12:56:00,mfh,82.78
2022-01-30T12:57:00,mfh,82.07
2022-01-30T12:58:00,mfh,82.08
2022-01-30T12:59:00,mfh,85.25
2022-01-30T13:00:00,mfh,85.31
2022-01-30T13:01:00,mfh,85.45
2022-01-30T13:02:00,mfh,85.56
2022-01-30T13:03:00,mfh,85.38
2022-01-30T13:04:00,mfh,85.52
2022-01-30T13:05:00,mfh,85.52
2022-01-30T13:06:00,mfh,85.95
2022-01-30T13:07:00,mfh,85.93
2022-01-30T13:08:00,mfh,86.02
2022-01-30T13:09:00,mfh,85.95
2022-01-30T13:10:00,mfh,85.84
2022-01-30T13:11:00,mfh,86.14
2022-01-30T13:12:00,mfh,85.75
2022-01-30T13:13:00,mfh,83.06
2022-01-30T13:14:00,mfh,83.06
2022-01-30T13:15:00,mfh,83.33
2022-01-30T13:16:00,mfh,83.12
2022-01-30T13:17:00,mfh,71.55
2022-01-30T13:18:00,mfh,75.56